�N����,����,�~����,�C��,���x,�C��,����,���ϕ���,�ő�u�ԕ���,�ő厞����,���˗�,�I�_���x,�n�����x,�ő啗���N��,DTYPE
"23/09/25","00:10",0.0,19.1,89.2,1012.6,291.1,0.7,1.6,314.6,0.00,17.3,23.3,"00:08:48",1
"23/09/25","00:20",0.0,19.1,89.3,1012.6,318.4,1.1,1.4,318.1,0.00,17.3,23.5,"00:10:16",1
"23/09/25","00:30",0.0,19.2,89.5,1012.8,295.5,1.2,1.6,322.4,0.00,17.5,23.2,"00:21:28",1
"23/09/25","00:40",0.0,19.5,89.2,1012.8,301.5,1.1,1.9,278.0,0.00,17.7,23.2,"00:33:20",1
"23/09/25","00:50",0.0,19.5,88.8,1013.0,319.8,1.2,2.6,319.3,0.00,17.6,23.3,"00:42:56",1
"23/09/25","01:00",0.0,19.6,88.2,1013.0,321.1,1.3,1.9,328.3,0.00,17.6,23.1,"00:50:40",1
"23/09/25","01:10",0.0,19.5,87.9,1012.6,295.0,1.0,1.4,269.5,0.00,17.5,23.2,"01:08:16",1
"23/09/25","01:20",0.0,19.5,87.6,1012.8,330.0,1.0,1.8,339.9,0.00,17.4,23.0,"01:16:32",1
"23/09/25","01:30",0.0,19.3,87.5,1012.6,322.5,1.0,1.8,334.4,0.00,17.2,22.9,"01:20:40",1
"23/09/25","01:40",0.0,18.8,87.7,1012.8,293.7,0.7,1.6,326.2,0.00,16.8,23.1,"01:30:24",1
"23/09/25","01:50",0.0,18.8,88.3,1012.6,325.9,1.0,2.0,345.7,0.00,16.9,22.9,"01:49:20",1
"23/09/25","02:00",0.0,18.8,88.6,1012.3,318.3,1.0,1.9,339.1,0.00,16.9,22.9,"01:51:44",1
"23/09/25","02:10",0.0,18.5,88.9,1012.3,290.4,0.7,1.1,277.5,0.00,16.7,23.0,"02:00:08",1
"23/09/25","02:20",0.0,18.6,89.4,1012.3,282.4,0.8,1.4,321.0,0.00,16.9,22.8,"02:13:44",1
"23/09/25","02:30",0.0,18.8,89.9,1012.6,312.6,1.0,1.4,331.4,0.00,17.1,22.8,"02:26:48",1
"23/09/25","02:40",0.0,19.0,90.0,1012.6,325.7,0.8,1.3,319.6,0.00,17.4,22.9,"02:31:52",1
"23/09/25","02:50",0.0,19.0,90.3,1012.8,289.2,0.7,1.4,323.6,0.00,17.4,22.7,"02:41:20",1
"23/09/25","03:00",0.0,19.0,90.5,1012.6,294.5,0.8,1.2,326.3,0.00,17.5,22.6,"02:54:08",1
"23/09/25","03:10",0.0,19.2,90.7,1012.3,285.8,0.8,1.2,261.6,0.00,17.7,22.8,"03:02:00",1
"23/09/25","03:20",0.0,19.3,90.8,1012.8,305.4,1.1,1.4,314.6,0.00,17.8,22.7,"03:11:44",1
"23/09/25","03:30",0.0,19.6,90.8,1012.6,290.4,0.7,1.6,337.3,0.00,18.1,22.8,"03:28:00",1
"23/09/25","03:40",0.0,19.8,90.8,1012.3,280.7,0.7,1.2,257.2,0.00,18.3,22.8,"03:35:04",1
"23/09/25","03:50",0.0,20.0,90.6,1012.3,277.3,1.0,1.8,283.7,0.00,18.5,22.7,"03:48:32",1
"23/09/25","04:00",0.0,20.3,90.3,1012.8,293.6,0.7,1.4,319.6,0.00,18.7,22.7,"03:51:04",1
"23/09/25","04:10",0.0,20.4,90.0,1012.6,318.2,0.8,1.7,338.0,0.00,18.7,22.6,"04:03:44",1
"23/09/25","04:20",0.0,20.4,89.7,1012.8,302.5,1.0,1.7,324.7,0.00,18.7,22.7,"04:13:44",1
"23/09/25","04:30",0.0,20.4,89.6,1012.1,306.6,0.6,1.2,315.6,0.00,18.7,22.6,"04:25:12",1
"23/09/25","04:40",0.0,20.4,89.6,1012.3,322.3,0.7,1.4,319.0,0.00,18.7,22.7,"04:36:08",1
"23/09/25","04:50",0.0,20.4,89.6,1012.1,309.2,1.0,1.6,328.0,0.00,18.7,22.6,"04:43:28",1
"23/09/25","05:00",0.0,20.5,89.6,1012.3,337.3,1.0,1.4,347.8,0.00,18.8,22.6,"04:54:08",1
"23/09/25","05:10",0.0,20.7,89.5,1012.6,297.6,0.7,1.4,326.4,0.00,19.0,22.6,"05:01:28",1
"23/09/25","05:20",0.0,20.7,89.1,1012.6,317.7,0.6,1.4,330.1,0.00,18.9,22.7,"05:12:16",1
"23/09/25","05:30",0.0,20.6,88.1,1012.3,342.4,0.7,1.8,342.0,0.00,18.6,22.6,"05:27:20",1
"23/09/25","05:40",0.0,20.9,87.0,1013.0,325.0,0.8,2.5,348.2,0.00,18.7,22.8,"05:33:12",1
"23/09/25","05:50",0.0,20.7,86.1,1012.8,323.3,0.7,1.1,334.2,0.00,18.3,22.6,"05:40:16",1
"23/09/25","06:00",0.0,20.4,85.4,1013.0,327.9,0.8,1.4,325.5,0.00,17.9,22.5,"05:57:36",1
"23/09/25","06:10",0.0,20.2,85.3,1013.0,317.5,0.7,1.2,339.8,0.00,17.7,22.6,"06:07:36",1
"23/09/25","06:20",0.0,20.1,85.5,1013.0,314.9,1.0,1.3,333.8,0.00,17.6,22.6,"06:11:52",1
"23/09/25","06:30",0.0,20.2,85.7,1013.3,321.1,0.8,1.7,340.6,0.00,17.8,22.5,"06:20:02",1
"23/09/25","06:40",0.0,20.7,85.6,1013.3,331.9,1.1,1.8,339.8,0.02,18.2,22.6,"06:35:20",1
"23/09/25","06:50",0.0,21.4,85.2,1013.3,312.0,0.5,1.1,342.5,0.04,18.9,22.5,"06:48:48",1
"23/09/25","07:00",0.0,22.3,82.4,1013.0,336.8,0.6,1.3,344.3,0.09,19.2,22.6,"06:59:44",1
"23/09/25","07:10",0.0,23.6,75.9,1013.0,344.7,0.6,1.7,359.9,0.07,19.1,22.1,"07:07:52",1
"23/09/25","07:20",0.0,24.1,70.3,1013.0,49.7,0.5,1.1,106.6,0.06,18.4,22.5,"07:11:52",1
"23/09/25","07:30",0.0,24.5,67.8,1012.8,7.8,0.5,0.8,94.1,0.09,18.2,22.6,"07:20:08",1
"23/09/25","07:40",0.0,24.5,66.1,1012.8,16.1,0.6,1.6,13.9,0.05,17.8,22.6,"07:37:28",1
"23/09/25","07:50",0.0,25.0,65.7,1013.0,359.9,0.6,1.7,47.6,0.13,18.2,22.7,"07:47:12",1
"23/09/25","08:00",0.0,25.2,64.0,1012.6,34.3,0.5,1.6,30.3,0.12,17.9,22.7,"07:51:36",1
"23/09/25","08:10",0.0,25.5,64.2,1012.3,103.9,0.6,2.0,107.7,0.19,18.3,22.6,"08:08:08",1
"23/09/25","08:20",0.0,25.5,62.2,1012.6,99.9,0.8,2.4,82.4,0.13,17.8,22.4,"08:11:04",1
"23/09/25","08:30",0.0,25.9,61.2,1011.9,116.1,1.0,2.1,101.3,0.22,17.9,22.6,"08:27:36",1
"23/09/25","08:40",0.0,26.1,59.7,1011.9,96.5,1.0,2.2,4.2,0.16,17.7,22.7,"08:36:00",1
"23/09/25","08:50",0.0,26.7,59.5,1010.9,77.5,1.1,2.4,89.0,0.27,18.2,22.7,"08:44:40",1
"23/09/25","09:00",0.0,26.8,57.3,1011.2,90.2,1.1,2.7,105.0,0.24,17.7,22.8,"08:53:28",1
"23/09/25","09:10",0.0,27.4,56.8,1011.4,105.4,1.1,2.4,107.0,0.35,18.1,23.0,"09:06:16",1
"23/09/25","09:20",0.0,26.5,57.5,1011.6,132.3,1.2,2.6,132.6,0.22,17.5,22.7,"09:17:52",1
"23/09/25","09:30",0.0,27.2,55.8,1011.4,126.2,1.3,3.3,143.7,0.36,17.6,22.8,"09:27:52",1
"23/09/25","09:40",0.0,27.6,53.3,1011.6,104.7,1.6,3.6,105.9,0.37,17.3,22.8,"09:38:32",1
"23/09/25","09:50",0.0,28.0,52.4,1011.6,109.0,1.3,3.2,88.7,0.37,17.4,22.9,"09:43:52",1
"23/09/25","10:00",0.0,28.2,51.2,1011.9,112.9,1.3,3.1,78.2,0.34,17.2,23.1,"09:58:00",1
"23/09/25","10:10",0.0,28.5,50.4,1012.3,111.6,1.5,4.0,129.0,0.41,17.2,23.1,"10:01:12",1
"23/09/25","10:20",0.0,29.2,48.8,1011.9,85.6,1.2,2.6,88.7,0.42,17.4,23.2,"10:11:20",1
"23/09/25","10:30",0.0,29.5,47.9,1012.3,72.2,1.2,2.9,116.3,0.45,17.3,23.2,"10:27:44",1
"23/09/25","10:40",0.0,29.4,47.8,1012.1,106.4,1.2,2.7,122.0,0.39,17.2,23.4,"10:37:12",1
"23/09/25","10:50",0.0,29.6,48.1,1012.1,123.8,1.2,3.6,38.7,0.46,17.5,23.3,"10:48:00",1
"23/09/25","11:00",0.0,29.4,48.1,1012.1,116.3,1.3,3.2,119.7,0.36,17.3,23.5,"10:54:48",1
"23/09/25","11:10",0.0,29.9,49.5,1011.9,114.8,1.3,2.9,111.4,0.48,18.2,23.5,"11:08:00",1
"23/09/25","11:20",0.0,29.6,46.7,1011.9,97.3,1.3,3.3,100.2,0.35,17.0,23.7,"11:18:48",1
"23/09/25","11:30",0.0,28.7,49.0,1011.4,88.7,1.3,3.2,104.4,0.19,17.0,23.6,"11:29:04",1
"23/09/25","11:40",0.0,28.3,50.4,1010.7,78.9,1.3,2.8,65.0,0.15,17.1,23.7,"11:36:40",1
"23/09/25","11:50",0.0,28.3,51.7,1010.7,96.2,1.5,3.3,122.8,0.23,17.5,23.6,"11:42:00",1
"23/09/25","12:00",0.0,30.1,49.2,1010.7,95.4,1.0,2.6,126.6,0.49,18.3,23.9,"11:53:12",1
"23/09/25","12:10",0.0,30.2,48.5,1010.9,119.5,1.7,4.3,93.0,0.49,18.2,23.9,"12:05:28",1
"23/09/25","12:20",0.0,30.2,48.6,1011.2,121.0,1.5,4.8,93.0,0.42,18.2,24.0,"12:13:36",1
"23/09/25","12:30",0.0,29.8,48.5,1010.7,117.7,1.6,3.2,152.5,0.32,17.8,24.0,"12:21:28",1
"23/09/25","12:40",0.0,30.7,47.8,1010.9,82.2,1.1,2.4,36.5,0.42,18.4,24.2,"12:38:48",1
"23/09/25","12:50",0.0,30.4,46.6,1010.9,95.2,1.3,2.9,97.8,0.32,17.7,24.2,"12:41:52",1
"23/09/25","13:00",0.0,29.5,48.5,1010.9,154.1,1.3,3.1,188.2,0.21,17.5,24.1,"12:56:08",1
"23/09/25","13:10",0.0,29.4,50.5,1010.4,157.5,1.3,3.2,183.7,0.25,18.1,24.4,"13:03:20",1
"23/09/25","13:20",0.0,29.8,49.6,1010.2,124.1,1.5,3.6,174.5,0.29,18.2,24.1,"13:10:40",1
"23/09/25","13:30",0.0,31.1,47.2,1010.4,101.0,1.3,3.6,157.8,0.46,18.6,24.1,"13:20:08",1
"23/09/25","13:40",0.0,30.3,46.4,1010.4,85.1,1.2,3.6,77.6,0.20,17.6,24.5,"13:33:44",1
"23/09/25","13:50",0.0,29.9,47.7,1010.0,38.8,0.8,2.8,43.2,0.16,17.6,24.6,"13:42:24",1
"23/09/25","14:00",0.0,29.8,49.2,1009.7,30.9,1.5,3.5,14.4,0.22,18.0,24.7,"13:51:36",1
"23/09/25","14:10",0.0,30.1,49.1,1009.7,94.4,1.2,2.8,138.1,0.25,18.3,24.5,"14:08:48",1
"23/09/25","14:20",0.0,30.1,49.0,1009.5,43.9,1.5,3.6,352.7,0.24,18.3,24.4,"14:14:32",1
"23/09/25","14:30",0.0,30.0,49.7,1009.5,76.8,1.1,3.6,74.6,0.20,18.4,24.7,"14:24:16",1
"23/09/25","14:40",0.0,30.1,50.0,1009.7,70.6,1.0,2.4,331.1,0.20,18.6,24.6,"14:32:16",1
"23/09/25","14:50",0.0,29.8,50.2,1009.3,51.3,0.8,2.6,86.9,0.16,18.4,24.6,"14:42:32",1
"23/09/25","15:00",0.0,29.4,50.3,1009.0,41.0,1.3,2.6,22.7,0.14,18.0,24.8,"14:55:36",1
"23/09/25","15:10",0.0,29.3,51.7,1009.3,62.9,1.0,3.4,60.8,0.12,18.4,24.8,"15:01:04",1
"23/09/25","15:20",0.0,29.0,51.3,1008.8,52.6,1.1,2.9,41.9,0.10,18.0,24.7,"15:12:24",1
"23/09/25","15:30",0.0,28.7,52.3,1008.8,55.2,1.1,4.0,51.4,0.09,18.0,24.8,"15:27:52",1
"23/09/25","15:40",0.0,28.8,52.6,1008.8,53.4,1.2,2.9,25.9,0.09,18.2,24.6,"15:37:44",1
"23/09/25","15:50",0.0,28.7,53.2,1008.3,58.3,0.8,1.7,112.7,0.08,18.3,24.9,"15:42:56",1
"23/09/25","16:00",0.0,28.6,54.0,1008.1,45.3,0.5,1.8,99.4,0.07,18.4,24.6,"15:51:52",1
"23/09/25","16:10",0.0,28.5,54.4,1007.6,28.0,1.1,2.6,17.7,0.06,18.5,24.8,"16:02:16",1
"23/09/25","16:20",0.0,28.4,55.0,1007.6,46.2,0.6,2.4,93.3,0.07,18.5,24.8,"16:13:52",1
"23/09/25","16:30",0.0,28.4,54.8,1007.8,25.3,1.2,2.7,38.5,0.05,18.5,24.7,"16:22:08",1
"23/09/25","16:40",0.0,28.7,55.4,1008.3,24.3,0.7,4.3,4.1,0.06,18.9,24.7,"16:30:08",1
"23/09/25","16:50",0.0,28.9,54.4,1007.6,98.9,0.8,2.9,118.7,0.04,18.8,24.6,"16:48:56",1
"23/09/25","17:00",0.0,28.7,55.5,1008.1,102.5,1.0,2.5,159.2,0.03,19.0,24.9,"16:55:20",1
"23/09/25","17:10",0.0,28.5,56.1,1008.1,87.0,0.7,2.6,56.3,0.01,18.9,24.6,"17:07:28",1
"23/09/25","17:20",0.0,28.1,56.8,1008.1,71.2,1.0,2.1,106.3,0.00,18.8,24.6,"17:15:28",1
"23/09/25","17:30",0.0,27.4,59.2,1008.8,89.0,0.6,1.7,121.3,0.00,18.8,24.6,"17:21:52",1
"23/09/25","17:40",0.0,26.9,61.2,1009.0,61.6,0.7,1.9,82.9,0.00,18.8,24.7,"17:33:28",1
"23/09/25","17:50",0.0,26.7,62.1,1009.0,25.8,0.8,2.5,46.6,0.00,18.9,24.6,"17:44:40",1
"23/09/25","18:00",0.0,26.4,63.1,1009.3,54.8,0.6,1.6,32.4,0.00,18.9,24.6,"17:58:32",1
"23/09/25","18:10",0.0,26.1,64.0,1009.3,47.2,0.7,1.8,100.2,0.00,18.8,24.7,"18:07:28",1
"23/09/25","18:20",0.0,26.0,64.6,1009.7,33.1,0.7,1.9,116.4,0.00,18.9,24.8,"18:10:16",1
"23/09/25","18:30",0.0,25.8,65.4,1009.7,42.4,0.7,1.9,349.6,0.00,18.9,24.5,"18:26:00",1
"23/09/25","18:40",0.0,25.6,66.2,1009.7,39.7,0.6,2.1,22.5,0.00,18.9,24.6,"18:39:04",1
"23/09/25","18:50",0.0,25.4,66.8,1010.0,8.5,0.8,1.9,28.5,0.00,18.8,24.6,"18:42:48",1
"23/09/25","19:00",0.0,25.2,67.4,1010.0,10.5,1.0,2.1,6.7,0.00,18.8,24.6,"18:52:24",1
"23/09/25","19:10",0.0,24.9,68.2,1010.2,346.8,0.7,1.8,356.3,0.00,18.7,24.4,"19:07:04",1
"23/09/25","19:20",0.0,24.6,69.1,1010.2,343.1,0.3,1.0,307.1,0.00,18.6,24.5,"19:17:12",1
"23/09/25","19:30",0.0,24.4,70.1,1010.2,327.2,0.6,1.2,325.6,0.00,18.6,24.4,"19:28:24",1
"23/09/25","19:40",0.0,23.9,72.0,1010.2,341.9,0.7,1.4,337.4,0.00,18.6,24.2,"19:33:36",1
"23/09/25","19:50",0.0,23.7,73.3,1010.4,344.2,0.6,1.3,315.7,0.00,18.7,24.4,"19:45:04",1
"23/09/25","20:00",0.0,23.6,74.1,1010.7,333.7,0.8,1.2,326.7,0.00,18.8,24.2,"19:50:02",1
"23/09/25","20:10",0.0,23.1,75.3,1010.9,336.0,0.7,1.6,338.4,0.00,18.5,24.3,"20:03:20",1
"23/09/25","20:20",0.0,22.7,77.0,1010.7,318.5,1.0,2.2,342.5,0.00,18.5,24.1,"20:12:16",1
"23/09/25","20:30",0.0,22.1,78.5,1011.2,321.1,0.8,1.3,328.7,0.00,18.2,24.2,"20:22:08",1
"23/09/25","20:40",0.0,21.8,80.2,1011.2,320.3,1.0,1.7,325.3,0.00,18.3,24.2,"20:32:56",1
"23/09/25","20:50",0.0,21.4,81.4,1011.4,305.6,0.7,1.2,312.6,0.00,18.1,24.1,"20:40:08",1
"23/09/25","21:00",0.0,21.6,82.6,1011.4,301.2,1.0,1.3,333.8,0.00,18.6,23.9,"20:59:20",1
"23/09/25","21:10",0.0,21.6,83.2,1011.4,322.4,1.1,1.3,321.0,0.00,18.7,23.8,"21:00:16",1
"23/09/25","21:20",0.0,21.6,83.5,1011.4,299.8,1.0,1.4,314.3,0.00,18.7,24.1,"21:16:16",1
"23/09/25","21:30",0.0,21.6,83.4,1010.9,310.9,0.6,1.2,323.0,0.00,18.7,23.9,"21:28:40",1
"23/09/25","21:40",0.0,21.5,83.8,1011.4,310.7,1.2,1.4,339.0,0.00,18.7,24.0,"21:31:52",1
"23/09/25","21:50",0.0,21.7,83.9,1011.6,303.9,1.1,1.4,323.6,0.00,18.9,23.7,"21:42:16",1
"23/09/25","22:00",0.0,21.7,83.7,1011.4,297.5,0.8,1.3,333.6,0.00,18.9,23.9,"21:50:40",1
"23/09/25","22:10",0.0,21.5,83.7,1011.6,291.7,1.0,1.4,337.9,0.00,18.7,23.8,"22:01:12",1
"23/09/25","22:20",0.0,21.5,83.5,1011.4,294.1,1.0,1.9,328.0,0.00,18.6,23.6,"22:10:02",1
"23/09/25","22:30",0.0,21.5,83.4,1011.4,318.3,1.1,1.9,314.4,0.00,18.6,23.6,"22:22:40",1
"23/09/25","22:40",0.0,21.3,83.3,1011.6,312.0,1.0,1.8,320.7,0.00,18.4,23.6,"22:34:24",1
"23/09/25","22:50",0.0,21.2,83.4,1011.4,311.6,1.0,1.7,326.7,0.00,18.3,23.7,"22:48:00",1
"23/09/25","23:00",0.0,20.8,83.5,1011.4,308.8,0.8,1.2,343.5,0.00,17.9,23.6,"22:50:32",1
"23/09/25","23:10",0.0,20.6,84.0,1011.4,298.0,0.7,1.3,269.0,0.00,17.8,23.6,"23:05:24",1
"23/09/25","23:20",0.0,20.7,84.2,1011.6,323.2,1.2,2.0,336.0,0.00,18.0,23.6,"23:18:16",1
"23/09/25","23:30",0.0,20.8,83.9,1011.4,332.5,1.3,2.1,333.7,0.00,18.0,23.5,"23:22:00",1
"23/09/25","23:40",0.0,20.6,83.7,1010.9,315.6,1.2,2.1,329.4,0.00,17.8,23.3,"23:35:52",1
"23/09/25","23:50",0.0,20.6,83.5,1011.4,338.2,1.1,1.8,341.1,0.00,17.7,23.3,"23:48:00",1
"23/09/25","24:00",0.0,20.3,83.5,1011.4,332.3,1.2,1.8,336.0,0.00,17.5,23.5,"23:52:08",1
